TimeCDT,TemperatureF,Dew PointF,Humidity,Sea Level PressureIn,VisibilityMPH,Wind Direction,Wind SpeedMPH,Gust SpeedMPH,PrecipitationIn,Events,Conditions,WindDirDegrees,DateUTC
12:53 AM,75.0,70.0,84,30.05,10.0,Calm,Calm,-,N/A,,Scattered Clouds,0,2013-08-23 05:53:00
1:53 AM,75.0,70.0,84,30.04,10.0,WNW,3.5,-,N/A,,Scattered Clouds,300,2013-08-23 06:53:00
2:53 AM,73.0,70.0,90,30.04,10.0,Calm,Calm,-,N/A,,Scattered Clouds,0,2013-08-23 07:53:00
3:53 AM,72.0,69.1,91,30.04,9.0,Calm,Calm,-,N/A,,Scattered Clouds,0,2013-08-23 08:53:00
4:53 AM,71.1,69.1,93,30.04,8.0,Calm,Calm,-,N/A,,Scattered Clouds,0,2013-08-23 09:53:00
5:53 AM,70.0,68.0,93,30.06,8.0,Calm,Calm,-,N/A,,Scattered Clouds,0,2013-08-23 10:53:00
6:53 AM,71.1,69.1,93,30.07,7.0,Calm,Calm,-,N/A,,Mostly Cloudy,0,2013-08-23 11:53:00
7:53 AM,75.0,71.1,87,30.08,9.0,Calm,Calm,-,N/A,,Mostly Cloudy,0,2013-08-23 12:53:00
8:53 AM,80.1,71.1,74,30.09,10.0,Calm,Calm,-,N/A,,Mostly Cloudy,0,2013-08-23 13:53:00
9:53 AM,82.9,70.0,65,30.09,10.0,Calm,Calm,-,N/A,,Scattered Clouds,0,2013-08-23 14:53:00
10:53 AM,86.0,70.0,59,30.08,10.0,Variable,6.9,-,N/A,,Scattered Clouds,0,2013-08-23 15:53:00
11:53 AM,87.1,68.0,53,30.07,10.0,Calm,Calm,-,N/A,,Scattered Clouds,0,2013-08-23 16:53:00
12:53 PM,89.1,69.1,52,30.05,10.0,NNE,3.5,-,N/A,,Mostly Cloudy,30,2013-08-23 17:53:00
1:53 PM,89.1,66.9,48,30.03,10.0,NNE,4.6,-,N/A,,Mostly Cloudy,20,2013-08-23 18:53:00
2:53 PM,88.0,68.0,51,30.01,10.0,East,4.6,-,N/A,,Mostly Cloudy,100,2013-08-23 19:53:00
3:27 PM,84.2,68.0,58,30.03,10.0,North,16.1,19.6,N/A,Thunderstorm,Thunderstorm,350,2013-08-23 20:27:00
3:39 PM,75.2,69.8,83,30.03,1.8,NW,11.5,19.6,0.03,Rain-Thunderstorm,Thunderstorms and Rain,310,2013-08-23 20:39:00
3:47 PM,75.2,69.8,83,30.02,3.0,West,10.4,20.7,0.26,Rain-Thunderstorm,Light Thunderstorms and Rain,270,2013-08-23 20:47:00
3:53 PM,75.0,71.1,87,30.00,3.0,WNW,5.8,-,0.31,Rain-Thunderstorm,Light Thunderstorms and Rain,290,2013-08-23 20:53:00
4:13 PM,77.0,69.8,78,30.03,9.0,Calm,Calm,-,0.01,Rain,Light Rain,0,2013-08-23 21:13:00
4:53 PM,80.1,73.0,79,30.04,10.0,Calm,Calm,-,0.01,,Mostly Cloudy,0,2013-08-23 21:53:00
5:53 PM,79.0,70.0,74,30.02,10.0,North,9.2,-,N/A,,Overcast,10,2013-08-23 22:53:00
6:53 PM,78.1,69.1,74,30.03,10.0,North,6.9,-,N/A,,Mostly Cloudy,10,2013-08-23 23:53:00
7:53 PM,75.9,70.0,82,30.04,10.0,NE,6.9,-,N/A,,Mostly Cloudy,40,2013-08-24 00:53:00
8:53 PM,75.0,70.0,84,30.06,10.0,NNE,3.5,-,N/A,,Scattered Clouds,20,2013-08-24 01:53:00
9:53 PM,75.0,70.0,84,30.07,9.0,Calm,Calm,-,N/A,,Scattered Clouds,0,2013-08-24 02:53:00
10:53 PM,72.0,69.1,91,30.07,7.0,Calm,Calm,-,N/A,,Clear,0,2013-08-24 03:53:00
11:53 PM,72.0,69.1,91,30.09,9.0,North,3.5,-,N/A,,Clear,10,2013-08-24 04:53:00